Regional Weather Roundup
Issued by NWS Goodland, KS

Home | Current Version | Previous Version | Text Only | Print | Product List | Glossary Off
Versions: 1 2 3 4 5 6 7 8 9 10 11 12 13 14 15 16 17 18 19 20 21 22 23 24 25 26 27 28 29 30 31 32 33 34 35 36 37 38 39 40 41 42 43 44 45 46 47 48 49 50

000
ASUS43 KGLD 112059
RWRGLD

GOODLAND FORECAST AREA HOURLY WEATHER ROUNDUP
NATIONAL WEATHER SERVICE GOODLAND KS
200 PM MST THU FEB 11 2016

...OFFICIAL OBSERVATIONS...

CITY           SKY/WX    TMP DP  RH WIND       PRES   REMARKS
GOODLAND KS    CLOUDY    59  31  34 W16       30.07F
HILL CITY KS   SUNNY     46  34  62 S10       30.08F
IMPERIAL NEB   CLOUDY    51  31  46 NW13G22   30.05F
MCCOOK NEB     SUNNY     46  34  62 SW5       30.05F
AKRON CO       CLOUDY    55  30  38 N12       30.10F
BURLINGTON CO  CLOUDY    58  31  35 W12       30.10S
LIMON CO       CLOUDY    48  28  46 N3        30.13F
$$

...UNOFFICIAL OBSERVATIONS...

CITY           SKY/WX    TMP DP  RH WIND       PRES   REMARKS
COLBY KS       SUNNY     52  37  58 W9        30.07S
GOVE KS          N/A     60  32  34 MISG        N/A
LENORA KS        N/A     42  32  68 MISG        N/A
NORTON KS      SUNNY     39  28  65 S12G17    30.06F
SHARON SPRINGS   N/A     66  30  26 W12G18      N/A
TRENTON NEB      N/A     53  32  45 MISG        N/A
KIT CARSON CO    N/A     64  27  24 MISG        N/A
YUMA CO          N/A     54  33  45 N12         N/A
$$



USA.gov is the U.S. government's official web portal to all federal, state and local government web resources and services.